Snowfall_Accumulation
0.0 0.0 0.0 0.0 0.0 0.0 0.0 0.0 0.0 0.0 0.0 0.0 0.0 0.0 0.0 0.0 0.0 0.0 0.0 0.0 0.0 0.0 0.0 0.0 0.0 0.0 0.0 0.0 0.0 0.0 0.0 0.0 0.0 0.0 0.0 0.0 0.0 0.0 0.0 0.0 0.0 0.0 0.0
0.0 0.0 0.0 0.0 0.0 0.0 0.0 0.0 0.0 0.0 0.0 0.0 0.0 0.0 0.0 0.0 0.0 0.0 0.0 0.0 0.0 0.0 0.0 0.0 0.0 0.0 0.0 0.0 0.0 0.0 0.0 0.0 0.0 0.0 0.0 0.0 0.0 0.0 0.0 0.0 0.0 0.0 0.0
0.0 0.0 0.0 0.0 0.0 0.0 0.0 0.0 0.0 0.0 0.0 0.0 0.0 0.0 0.0 0.0 0.0 0.0 0.0 0.0 0.0 0.0 0.0 0.0 0.0 0.0 0.0 0.0 0.0 0.0 0.0 0.0 0.0 0.0 0.0 0.0 0.0 0.0 0.0 0.0 0.0 0.0 0.0
0.0 0.0 0.0 0.0 0.0 0.0 0.0 0.0 0.0 0.0 0.0 0.0 0.0 0.0 0.0 0.0 0.0 0.0 0.0 0.0 0.0 0.0 0.0 0.0 0.0 0.0 0.0 0.0 0.0 0.0 0.0 0.0 0.0 0.0 0.0 0.0 0.0 0.0 0.0 0.0 0.0 0.0 0.0
0.0 0.0 0.0 0.0 0.0 0.0 0.0 0.0 0.0 0.0 0.0 0.0 0.0 0.0 0.0 0.0 0.0 0.0 0.0 0.0 0.0 0.0 0.0 0.0 0.0 0.0 0.0 0.0 0.0 0.0 0.0 0.0 0.0 0.0 0.0 0.0 0.0 0.0 0.0 0.0 0.0 0.0 0.0
0.0 0.0 0.0 0.0 0.0 0.0 0.0 0.0 0.0 0.0 0.0 0.0 0.0 0.0 0.0 0.0 0.0 0.0 0.0 0.0 0.0 0.0 0.0 0.0 0.0 0.0 0.0 0.0 0.0 0.0 0.0 0.0 0.0 0.0 0.0 0.0 0.0 0.0 0.0 0.0 0.0 0.0 0.0
0.0 0.0 0.0 0.0 0.0 0.0 0.0 0.0 0.0 0.0 0.0 0.0 0.0 0.0 0.0 0.0 0.0 0.0 0.0 0.0 0.0 0.0 0.0 0.0 0.0 0.0 0.0 0.0 0.0 0.0 0.0 0.0 0.0 0.0 0.0 0.0 0.0 0.0 0.0 0.0 0.0 0.0 0.0
0.0 0.0 0.0 0.0 0.0 0.0 0.0 0.0 0.0 0.0 0.0 0.0 0.0 0.0 0.0 0.0 0.0 0.0 0.0 0.0 0.0 0.0 0.0 0.0 0.0 0.0 0.0 0.0 0.0 0.0 0.0 0.0 0.0 0.0 0.0 0.0 0.0 0.0 0.0 0.0 0.0 0.0 0.0
0.0 0.0 0.0 0.0 0.0 0.0 0.0 0.0 0.0 0.0 0.0 0.0 0.0 0.0 0.0 0.0 0.0 0.0 0.0 0.0 0.0 0.0 0.0 0.0 0.0 0.0 0.0 0.0 0.0 0.0 0.0 0.0 0.0 0.0 0.0 0.0 0.0 0.0 0.0 0.0 0.0 0.0 0.0
0.0 0.1 0.0 0.0 0.0 0.0 0.0 0.0 0.0 0.0 0.0 0.0 0.0 0.0 0.0 0.0 0.0 0.0 0.0 0.0 0.0 0.0 0.0 0.0 0.0 0.0 0.0 0.0 0.0 0.0 0.0 0.0 0.0 0.0 0.0 0.0 0.0 0.0 0.0 0.0 0.0 0.0 0.0
0.4 0.1 0.0 0.0 0.0 0.0 0.0 0.0 0.0 0.0 0.0 0.0 0.0 0.0 0.0 0.0 0.0 0.0 0.0 0.0 0.0 0.0 0.0 0.0 0.0 0.0 0.0 0.0 0.0 0.0 0.0 0.0 0.0 0.0 0.0 0.0 0.0 0.0 0.0 0.0 0.0 0.1 0.4
0.7 0.3 0.0 0.0 0.0 0.0 0.0 0.0 0.0 0.0 0.0 0.0 0.0 0.0 0.0 0.0 0.0 0.0 0.0 0.0 0.0 0.0 0.0 0.0 0.0 0.0 0.0 0.0 0.0 0.0 0.0 0.0 0.0 0.0 0.0 0.0 0.0 0.0 0.0 0.0 0.2 0.6 0.3
2.0 0.9 0.1 0.0 0.0 0.0 0.0 0.0 0.0 0.0 0.0 0.0 0.0 0.0 0.0 0.0 0.0 0.0 0.0 0.0 0.0 0.0 0.0 0.0 0.0 0.0 0.0 0.0 0.0 0.0 0.0 0.0 0.0 0.0 0.0 0.0 0.0 0.0 0.0 0.9 0.6 0.2 0.7
4.0 0.6 0.0 0.0 0.0 0.0 0.0 0.0 0.0 0.0 0.0 0.0 0.0 0.0 0.0 0.0 0.0 0.0 0.0 0.0 0.0 0.0 0.0 0.0 0.0 0.0 0.0 0.0 0.0 0.0 0.0 0.0 0.0 0.0 0.0 0.0 0.3 0.2 0.6 0.4 0.6 0.3 0.5
6.7 3.2 0.2 0.0 0.0 0.0 0.0 0.0 0.0 0.0 0.0 0.0 0.0 0.0 0.0 0.0 0.0 0.0 0.0 0.0 0.0 0.0 0.0 0.0 0.0 0.0 0.0 0.0 0.0 0.0 0.0 0.0 0.1 0.0 1.6 1.3 1.0 0.5 0.7 0.5 0.2 0.2 0.1
11.6 5.5 2.0 0.0 0.0 0.0 0.0 0.0 0.0 0.0 0.0 0.0 0.0 0.0 0.0 0.0 0.0 0.0 0.0 0.0 0.0 0.0 0.0 0.0 0.0 0.0 0.0 0.0 0.0 0.0 0.0 0.3 2.1 2.3 2.2 1.1 0.4 0.2 0.0 0.0 0.0 0.0 0.5
12.5 5.1 1.0 0.0 0.0 0.0 0.0 0.0 0.0 0.0 0.0 0.0 0.0 0.0 0.0 0.0 0.0 0.0 0.0 0.0 0.0 0.0 0.0 0.0 0.0 2.1 0.0 0.0 0.0 0.7 2.3 2.5 1.7 1.3 0.8 0.7 0.1 0.2 0.1 0.0 0.0 0.3 0.3
10.6 4.2 2.8 0.0 0.0 0.0 0.0 0.0 0.0 0.0 0.0 0.0 0.0 0.0 0.1 0.0 0.0 0.1 0.4 0.3 0.0 0.4 0.2 0.4 4.4 4.7 0.6 0.5 1.4 1.9 1.9 0.6 0.6 0.2 0.1 0.0 0.0 0.0 0.1 0.1 1.9 1.0 0.0
9.9 5.6 3.5 0.0 0.0 0.0 0.0 0.0 0.0 0.0 0.0 0.2 0.5 0.0 0.4 0.2 0.5 2.5 2.1 5.0 2.5 7.1 5.0 3.5 2.6 1.8 1.0 0.0 0.2 0.2 0.1 0.0 0.0 0.0 0.0 0.0 0.1 0.0 0.0 1.3 1.5 0.1 0.1
7.5 10.2 4.2 0.0 0.0 0.0 0.0 0.0 0.0 0.0 0.0 0.0 0.0 0.0 0.0 0.1 1.6 4.5 4.4 3.7 4.0 4.6 3.0 2.2 1.1 0.4 0.2 0.0 0.0 0.0 0.0 0.0 0.0 0.0 0.0 0.0 0.1 0.0 0.4 0.6 0.3 0.8 0.1
7.7 7.9 6.1 0.0 0.0 0.0 0.0 0.0 0.0 0.0 0.6 1.1 1.3 1.0 0.3 0.8 0.9 3.9 3.1 2.0 1.4 1.2 0.9 0.3 0.1 0.0 0.0 0.0 0.0 0.0 0.0 0.0 0.2 0.5 0.0 0.0 0.1 0.6 0.0 0.0 0.1 0.2 0.2
7.4 7.8 4.6 0.0 0.8 0.0 0.0 0.4 2.8 0.8 1.0 2.0 1.2 2.6 1.6 0.9 0.8 0.1 0.1 1.5 1.6 2.7 1.9 1.4 1.0 0.2 0.0 0.0 0.0 0.0 0.0 0.0 0.4 0.2 0.1 0.1 0.9 0.0 0.0 0.0 0.1 0.1 0.2
6.6 5.4 6.0 3.2 2.4 0.6 0.2 0.0 4.4 3.7 4.4 3.3 4.2 6.2 5.5 4.9 3.7 2.3 2.9 5.3 4.3 4.1 5.6 3.2 1.5 2.3 0.9 0.2 0.0 0.0 0.1 0.2 0.5 0.5 0.7 0.6 0.0 0.0 0.0 0.0 0.0 0.1 0.0
5.6 5.7 4.9 3.7 2.6 3.0 5.0 3.4 4.4 3.6 3.9 6.5 7.6 6.8 7.0 7.0 8.3 7.3 6.4 5.9 7.6 7.5 7.2 5.8 5.4 4.0 2.4 2.1 1.1 0.8 1.0 0.2 1.1 1.1 1.7 0.4 0.2 0.0 0.1 0.4 0.4 0.2 0.1
6.0 6.7 6.5 6.8 5.4 5.5 8.3 7.4 6.2 4.8 7.0 7.4 8.4 8.5 8.4 8.3 8.2 7.6 7.2 7.0 5.9 3.8 5.0 6.1 5.2 6.4 6.9 4.3 2.3 2.6 3.3 3.1 2.4 2.3 2.2 1.8 1.1 0.6 0.7 0.8 0.4 0.4 0.1
5.0 5.7 7.6 7.9 8.8 9.0 8.8 8.9 7.8 5.9 6.1 7.5 7.4 6.8 7.0 6.6 5.4 5.5 7.1 3.4 3.1 2.7 2.8 3.1 4.6 5.5 3.0 1.9 2.0 2.1 2.0 1.5 1.2 2.8 3.5 3.0 2.3 2.1 1.0 1.3 1.3 0.7 0.5